Location: Home
(42.5358°N, 72.7383°W)
Time: 06:42:31
(UTC-05:00)

Courier 1B - Pass Details

Date: 01 December 2021
Orbit: 962 x 1209 km, 28.3° (Epoch: 25 January)

Event Time Altitude Azimuth Distance (km) Brightness Sun altitude
Rises 22:17:04 0° 252° (WSW) 3,746 - -63.1°
Reaches altitude 10° 22:22:26 10° 217° (SW) 2,736 - -63.8°
Maximum altitude 22:23:54 11° 204° (SSW) 2,666 - -64.0°
Drops below altitude 10° 22:25:21 10° 191° (S) 2,711 - -64.2°
Sets 22:30:34 0° 156° (SSE) 3,629 - -64.8°
